MST,Max TemperatureF,Mean TemperatureF,Min TemperatureF,Max Dew PointF,MeanDew PointF,Min DewpointF,Max Humidity, Mean Humidity, Min Humidity, Max Sea Level PressureIn, Mean Sea Level PressureIn, Min Sea Level PressureIn, Max VisibilityMiles, Mean VisibilityMiles, Min VisibilityMiles, Max Wind SpeedMPH, Mean Wind SpeedMPH, Max Gust SpeedMPH,PrecipitationIn, CloudCover, Events, WindDirDegrees
2012-12-1,56,45,33,32,26,21,70,48,26,29.89,29.82,29.70,10,10,10,22,7,30,0.00,1,,302
2012-12-2,62,46,30,37,26,19,72,47,21,29.83,29.60,29.46,10,10,8,41,12,60,0.01,2,Rain,232
2012-12-3,43,33,23,19,14,11,63,45,27,30.27,30.05,29.68,10,10,10,21,5,26,0.00,0,,253
2012-12-4,43,33,23,23,16,12,69,51,33,30.27,30.20,30.04,10,10,8,13,3,16,0.00,1,,291
2012-12-5,59,45,31,30,26,22,70,50,30,30.00,29.88,29.76,10,10,10,26,8,35,0.00,0,,260
2012-12-6,47,36,25,23,18,15,64,48,31,29.98,29.87,29.77,10,10,10,17,5,21,0.00,1,,241
2012-12-7,38,30,21,20,13,5,77,53,29,29.96,29.88,29.74,10,10,10,13,4,21,0.00,0,,237
2012-12-8,34,25,15,19,8,-17,88,51,13,30.13,29.85,29.64,10,7,1,40,12,52,0.02,6,Snow,285
2012-12-9,19,11,3,12,6,-2,96,80,63,30.41,30.18,30.01,10,6,1,15,5,17,0.04,5,Snow,187
2012-12-10,34,20,5,15,7,-2,80,62,43,30.12,30.05,29.94,10,10,10,25,5,35,0.00,3,,176
2012-12-11,39,23,7,19,11,2,76,56,35,30.02,29.86,29.65,10,10,9,20,5,26,0.00,0,,201
2012-12-12,46,34,21,20,14,11,68,50,31,29.86,29.71,29.60,10,10,10,26,8,36,0.00,1,,253
2012-12-13,45,31,17,20,16,12,68,53,37,29.99,29.89,29.83,10,10,10,23,5,31,0.00,0,,327
2012-12-14,37,28,19,20,17,14,77,62,47,29.81,29.70,29.60,10,10,10,13,2,15,0.00,3,,174
2012-12-15,38,29,20,22,19,14,81,67,52,29.81,29.72,29.63,10,10,9,8,3,9,0.00,1,,316
2012-12-16,36,26,15,16,8,2,84,55,25,29.83,29.72,29.61,10,9,2,22,4,28,0.00,1,,188
2012-12-17,46,29,12,28,10,-1,64,44,24,29.68,29.58,29.46,10,10,10,32,12,43,0.00,2,,274
2012-12-18,31,25,19,0,-5,-9,34,28,21,29.86,29.77,29.66,10,10,10,23,9,30,0.00,1,,300
2012-12-19,27,17,7,-4,-9,-19,50,32,13,30.29,30.10,29.85,10,10,10,17,4,21,0.00,0,,281
2012-12-20,37,20,3,2,-3,-11,55,39,22,30.39,30.30,30.23,10,10,9,14,4,16,0.00,0,,163
2012-12-21,33,20,7,4,2,-1,63,46,28,30.30,30.21,30.13,10,10,10,10,2,13,0.00,0,,276
2012-12-22,32,21,9,7,3,0,64,48,31,30.23,30.08,29.89,10,10,10,16,3,20,0.00,0,,326
2012-12-23,41,30,18,15,5,-1,53,36,18,30.04,29.93,29.82,10,10,10,15,5,21,0.00,0,,251
2012-12-24,31,21,10,12,7,3,92,66,39,30.17,29.90,29.78,10,7,1,13,4,16,0.09,3,Snow,352
2012-12-25,16,8,0,7,4,-2,95,81,67,30.37,30.16,29.88,10,5,1,7,2,8,0.04,4,Snow,79
2012-12-26,17,10,3,14,10,1,92,83,73,30.07,29.79,29.58,8,4,1,8,2,9,0.13,8,Snow,300
2012-12-27,26,17,8,18,13,4,88,74,60,30.07,29.81,29.63,10,4,2,10,2,12,0.07,7,Snow,271
2012-12-28,29,16,3,10,4,-1,88,65,42,30.26,30.15,30.05,10,10,10,12,2,13,0.00,0,,132
2012-12-29,13,5,-4,4,-1,-6,91,79,67,30.36,30.26,30.19,10,10,7,8,1,9,0.00,0,,322
2012-12-30,14,3,-8,4,-3,-12,100,83,66,30.34,30.25,30.19,10,10,8,10,2,15,0.00,0,,14
2012-12-31,13,2,-10,3,-5,-12,87,77,66,30.37,30.29,30.17,10,8,5,15,3,15,0.00,0,,63